TimeHST,TemperatureF,Dew PointF,Humidity,Sea Level PressureIn,VisibilityMPH,Wind Direction,Wind SpeedMPH,Gust SpeedMPH,PrecipitationIn,Events,Conditions,WindDirDegrees,DateUTC
12:53 AM,75.0,68.0,79,29.96,10.0,NNW,3.5,-,N/A,,Scattered Clouds,340,2013-10-18 10:53:00
1:53 AM,73.9,66.9,79,29.95,10.0,North,3.5,-,N/A,,Mostly Cloudy,360,2013-10-18 11:53:00
2:53 AM,73.0,66.0,79,29.94,10.0,Calm,Calm,-,N/A,,Mostly Cloudy,0,2013-10-18 12:53:00
3:53 AM,73.0,64.9,76,29.93,10.0,Calm,Calm,-,N/A,,Mostly Cloudy,0,2013-10-18 13:53:00
4:53 AM,71.1,64.9,81,29.92,10.0,North,3.5,-,N/A,,Mostly Cloudy,10,2013-10-18 14:53:00
5:53 AM,73.0,66.9,81,29.93,10.0,NNW,4.6,-,N/A,,Mostly Cloudy,330,2013-10-18 15:53:00
6:53 AM,72.0,66.9,84,29.94,10.0,North,3.5,-,N/A,,Mostly Cloudy,350,2013-10-18 16:53:00
7:53 AM,75.0,68.0,79,29.96,10.0,Calm,Calm,-,N/A,,Overcast,0,2013-10-18 17:53:00
8:53 AM,79.0,68.0,69,29.97,10.0,Variable,5.8,-,N/A,,Mostly Cloudy,0,2013-10-18 18:53:00
9:53 AM,81.0,64.9,58,29.98,10.0,Variable,4.6,-,N/A,,Mostly Cloudy,0,2013-10-18 19:53:00
10:53 AM,81.0,69.1,67,29.96,10.0,SSW,9.2,-,N/A,,Mostly Cloudy,210,2013-10-18 20:53:00
11:53 AM,82.0,69.1,65,29.94,10.0,SW,11.5,-,N/A,,Mostly Cloudy,220,2013-10-18 21:53:00
12:53 PM,82.9,69.1,63,29.91,10.0,SSW,12.7,-,N/A,,Scattered Clouds,210,2013-10-18 22:53:00
1:53 PM,82.9,68.0,60,29.89,10.0,SSW,11.5,-,N/A,,Scattered Clouds,210,2013-10-18 23:53:00
2:53 PM,82.0,69.1,65,29.87,10.0,SW,12.7,-,N/A,,Scattered Clouds,220,2013-10-19 00:53:00
3:53 PM,82.0,66.9,60,29.87,10.0,South,11.5,-,N/A,,Scattered Clouds,170,2013-10-19 01:53:00
4:53 PM,82.0,66.9,60,29.86,10.0,East,9.2,-,N/A,,Scattered Clouds,80,2013-10-19 02:53:00
5:53 PM,80.1,68.0,67,29.88,10.0,ENE,3.5,-,N/A,,Scattered Clouds,70,2013-10-19 03:53:00
6:53 PM,79.0,63.0,58,29.90,10.0,NW,8.1,-,N/A,,Scattered Clouds,320,2013-10-19 04:53:00
7:53 PM,77.0,64.0,64,29.91,10.0,NNW,10.4,-,N/A,,Scattered Clouds,340,2013-10-19 05:53:00
8:53 PM,75.9,64.0,67,29.93,10.0,NNW,5.8,-,N/A,,Partly Cloudy,340,2013-10-19 06:53:00
9:53 PM,75.0,64.0,69,29.92,10.0,North,3.5,-,N/A,,Partly Cloudy,10,2013-10-19 07:53:00
10:53 PM,73.0,62.1,68,29.92,10.0,Variable,3.5,-,N/A,,Partly Cloudy,0,2013-10-19 08:53:00
11:53 PM,71.1,61.0,70,29.90,10.0,North,3.5,-,N/A,,Partly Cloudy,10,2013-10-19 09:53:00